K0FJ-1 Weather Reports


Display with metric or nautical units.
time (UTC)temp
F
wind
direction
speed
MPH
gust
MPH
rain 1hr
in
rain 24hr
in
rain mn
in
humidity
%
barometer
mb
20260905141003 70 0 0.0 0.0 0.00 0.00 0.00 77 1015.8
20260905140503 70 0 0.0 0.0 0.00 0.00 0.00 77 1015.7
20260905140003 69 0 0.0 0.0 0.00 0.00 0.00 77 1015.7
20260905135503 69 0 0.0 0.0 0.00 0.00 0.00 77 1015.7
20260905135003 68 0 0.0 0.0 0.00 0.00 0.00 78 1015.7
20260905134503 68 0 0.0 0.0 0.00 0.00 0.00 79 1015.6
20260905134003 68 0 0.0 0.0 0.00 0.00 0.00 80 1015.5
20260905133503 68 0 0.0 0.0 0.00 0.00 0.00 81 1015.5
20260905133003 68 0 0.0 0.0 0.00 0.00 0.00 79 1015.6
20260905132503 67 0 0.0 0.0 0.00 0.00 0.00 80 1015.5
20260905132003 67 0 0.0 0.0 0.00 0.00 0.00 81 1015.4
20260905131503 67 0 0.0 0.0 0.00 0.00 0.00 81 1015.3
20260905131003 67 0 0.0 0.0 0.00 0.00 0.00 80 1015.3
20260905130503 67 0 0.0 0.0 0.00 0.00 0.00 81 1015.2
20260905130003 67 0 0.0 0.0 0.00 0.00 0.00 81 1015.1
20260905125503 67 0 0.0 0.0 0.00 0.00 0.00 80 1015.0
20260905125003 66 0 0.0 0.0 0.00 0.00 0.00 80 1014.9
20260905124503 66 0 0.0 0.0 0.00 0.00 0.00 79 1014.8
20260905124003 67 0 0.0 0.0 0.00 0.00 0.00 79 1014.7
20260905123503 67 0 0.0 0.0 0.00 0.00 0.00 79 1014.7
20260905123003 67 0 0.0 0.0 0.00 0.00 0.00 80 1014.6
20260905122503 67 0 0.0 0.0 0.00 0.00 0.00 79 1014.6
20260905122003 67 0 0.0 0.0 0.00 0.00 0.00 78 1014.5
20260905121503 67 0 0.0 0.0 0.00 0.00 0.00 78 1014.5
20260905121003 67 0 0.0 0.0 0.00 0.00 0.00 78 1014.5
20260905120503 68 0 0.0 0.0 0.00 0.00 0.00 77 1014.5
20260905120003 68 0 0.0 0.0 0.00 0.00 0.00 76 1014.6
20260905115503 68 0 0.0 0.0 0.00 0.00 0.00 76 1014.6
20260905115003 68 0 0.0 0.0 0.00 0.00 0.00 75 1014.6
20260905114503 69 0 0.0 0.0 0.00 0.00 0.00 75 1014.6
20260905114003 69 0 0.0 0.0 0.00 0.00 0.00 74 1014.6
20260905113503 69 0 0.0 0.0 0.00 0.00 0.00 74 1014.6
20260905113003 69 0 0.0 0.0 0.00 0.00 0.00 73 1014.6
20260905112503 70 0 0.0 0.0 0.00 0.00 0.00 72 1014.6
20260905112003 70 0 0.0 0.0 0.00 0.00 0.00 72 1014.7
20260905111503 70 174 1.0 4.0 0.00 0.00 0.00 72 1014.8
20260905111003 70 173 1.0 4.0 0.00 0.00 0.00 71 1014.9
20260905110503 70 182 1.0 7.0 0.00 0.00 0.00 71 1015.0
20260905110003 70 183 2.0 7.0 0.00 0.00 0.00 71 1015.0
20260905105503 70 182 1.0 4.0 0.00 0.00 0.00 71 1015.1
20260905105003 70 181 1.0 4.0 0.00 0.00 0.00 71 1015.0
20260905104503 70 0 0.0 0.0 0.00 0.00 0.00 71 1015.1
20260905104003 70 193 0.0 5.0 0.00 0.00 0.00 71 1015.0
20260905103503 70 193 0.0 5.0 0.00 0.00 0.00 71 1015.2
20260905103003 70 0 0.0 0.0 0.00 0.00 0.00 71 1015.1
20260905102503 70 0 0.0 0.0 0.00 0.00 0.00 70 1015.0
20260905102003 70 0 0.0 0.0 0.00 0.00 0.00 70 1015.0
20260905101503 71 0 0.0 0.0 0.00 0.00 0.00 69 1014.9
20260905101003 71 0 0.0 0.0 0.00 0.00 0.00 69 1014.9
20260905100503 71 0 0.0 0.0 0.00 0.00 0.00 68 1014.9
20260905100003 72 0 0.0 0.0 0.00 0.00 0.00 67 1014.9
20260905095503 72 0 0.0 0.0 0.00 0.00 0.00 66 1014.9
20260905095003 72 0 0.0 0.0 0.00 0.00 0.00 65 1014.9
20260905094503 73 0 0.0 0.0 0.00 0.00 0.00 65 1015.0
20260905094003 73 0 0.0 0.0 0.00 0.00 0.00 64 1014.9
20260905093503 73 200 0.0 2.0 0.00 0.00 0.00 64 1015.0
20260905093003 73 189 1.0 6.0 0.00 0.00 0.00 64 1015.0
20260905092503 73 183 1.0 6.0 0.00 0.00 0.00 64 1015.1
20260905092003 73 182 2.0 6.0 0.00 0.00 0.00 63 1015.2
20260905091503 73 184 3.0 6.0 0.00 0.00 0.00 63 1015.2
20260905091003 73 182 3.0 6.0 0.00 0.00 0.00 63 1015.3
20260905090503 74 177 3.0 6.0 0.00 0.00 0.00 63 1015.4
20260905090003 74 174 2.0 7.0 0.00 0.00 0.00 63 1015.3
20260905085503 74 175 3.0 8.0 0.00 0.00 0.00 62 1015.4
20260905085003 74 177 4.0 8.0 0.00 0.00 0.00 62 1015.5
20260905084503 73 182 3.0 8.0 0.00 0.00 0.00 63 1015.4
20260905084003 73 190 2.0 8.0 0.00 0.00 0.00 63 1015.5
20260905083503 73 206 1.0 4.0 0.00 0.00 0.00 64 1015.3
20260905083003 74 215 1.0 4.0 0.00 0.00 0.00 64 1015.2
20260905082503 74 218 1.0 4.0 0.00 0.00 0.00 63 1015.2
20260905082003 74 218 1.0 3.0 0.00 0.00 0.00 62 1015.2
20260905081503 75 204 0.0 4.0 0.00 0.00 0.00 62 1015.2
20260905081003 75 198 2.0 5.0 0.00 0.00 0.00 61 1015.1
20260905080503 75 191 2.0 5.0 0.00 0.00 0.00 61 1015.1
20260905080003 75 187 2.0 5.0 0.00 0.00 0.00 61 1015.2
20260905075503 75 186 2.0 9.0 0.00 0.00 0.00 61 1015.2
20260905075003 75 184 2.0 9.0 0.00 0.00 0.00 61 1015.2
20260905074503 76 183 3.0 9.0 0.00 0.00 0.00 60 1015.2
20260905074003 76 181 4.0 9.0 0.00 0.00 0.00 60 1015.2
20260905073503 76 180 4.0 9.0 0.00 0.00 0.00 59 1015.2
20260905073003 77 181 4.0 9.0 0.00 0.00 0.00 58 1015.2
20260905072503 77 182 4.0 7.0 0.00 0.00 0.00 58 1015.2
20260905072003 77 180 4.0 9.0 0.00 0.00 0.00 57 1015.2
20260905071503 77 176 4.0 9.0 0.00 0.00 0.00 57 1015.2
20260905071003 77 174 3.0 7.0 0.00 0.00 0.00 56 1015.1
20260905070503 78 176 3.0 8.0 0.00 0.00 0.00 56 1015.1
20260905070003 78 178 3.0 8.0 0.00 0.00 0.00 56 1015.2
20260905065503 78 177 3.0 7.0 0.00 0.00 0.00 55 1015.1
20260905065003 78 171 3.0 7.0 0.00 0.00 0.00 55 1015.1
20260905064503 78 163 2.0 8.0 0.00 0.00 0.00 55 1015.2
20260905064003 78 167 3.0 8.0 0.00 0.00 0.00 54 1015.2
20260905063503 79 170 3.0 9.0 0.00 0.00 0.00 54 1015.3
20260905063003 79 167 3.0 9.0 0.00 0.00 0.00 53 1015.4
20260905062503 79 168 4.0 13.0 0.00 0.00 0.00 53 1015.4
20260905062003 79 172 5.0 13.0 0.00 0.00 0.00 53 1015.5
20260905061503 79 175 4.0 9.0 0.00 0.00 0.00 54 1015.4
20260905061003 79 175 4.0 9.0 0.00 0.00 0.00 55 1015.4
20260905060503 78 177 4.0 7.0 0.00 0.00 0.00 56 1015.4
20260905060003 78 175 3.0 7.0 0.00 0.00 0.00 56 1015.3
20260905055503 78 172 3.0 7.0 0.00 0.00 0.00 56 1015.3
20260905055003 78 168 1.0 5.0 0.00 0.00 0.00 56 1015.3
20260905054503 79 172 1.0 5.0 0.00 0.00 0.00 56 1015.2
20260905054003 79 182 1.0 3.0 0.00 0.00 0.00 56 1015.2
20260905053503 79 179 1.0 4.0 0.00 0.00 0.00 56 1015.2
20260905053003 79 178 2.0 5.0 0.00 0.00 0.00 55 1015.0
20260905052503 79 174 2.0 6.0 0.00 0.00 0.00 55 1015.0
20260905052003 79 175 3.0 6.0 0.00 0.00 0.00 55 1015.0
20260905051503 79 179 4.0 8.0 0.00 0.00 0.00 56 1015.0
20260905051003 79 177 3.0 8.0 0.00 0.00 0.00 56 1015.1
20260905050503 80 169 3.0 7.0 0.00 0.00 0.00 56 1015.2
20260905050004 80 172 2.0 7.0 0.00 0.00 0.00 56 1015.2
20260905045503 80 177 3.0 7.0 0.00 0.00 0.00 57 1015.2
20260905045003 80 177 2.0 7.0 0.00 0.00 0.00 58 1015.2
20260905044503 80 177 1.0 5.0 0.00 0.00 0.00 58 1015.2
20260905044003 80 174 1.0 5.0 0.00 0.00 0.00 59 1015.2
20260905043503 80 171 1.0 5.0 0.00 0.00 0.00 59 1015.3
20260905043003 80 174 0.0 5.0 0.00 0.00 0.00 59 1015.2
20260905042503 81 161 0.0 1.0 0.00 0.00 0.00 58 1015.2
20260905042003 81 0 0.0 0.0 0.00 0.00 0.00 58 1015.3
20260905041503 82 164 0.0 1.0 0.00 0.00 0.00 57 1015.3
20260905041003 82 167 0.0 2.0 0.00 0.00 0.00 56 1015.2
20260905040503 82 165 1.0 6.0 0.00 0.00 0.00 56 1015.1
20260905040003 82 165 2.0 6.0 0.00 0.00 0.00 55 1015.0
20260905035503 83 166 1.0 7.0 0.00 0.00 0.00 55 1014.9
20260905035003 83 168 1.0 7.0 0.00 0.00 0.00 55 1014.9
20260905034503 83 170 2.0 8.0 0.00 0.00 0.00 54 1014.9
20260905034003 84 168 3.0 8.0 0.00 0.00 0.00 54 1014.9
20260905033503 84 170 2.0 7.0 0.00 0.00 0.00 53 1014.9
20260905033003 84 173 2.0 8.0 0.00 0.00 0.00 53 1015.0
20260905032503 85 174 2.0 8.0 0.00 0.00 0.00 52 1014.9
20260905032003 85 178 1.0 7.0 0.00 0.00 0.00 52 1014.9
20260905031503 85 176 1.0 7.0 0.00 0.00 0.00 51 1014.7
20260905031003 85 172 1.0 5.0 0.00 0.00 0.00 52 1014.6
20260905030503 84 174 1.0 5.0 0.00 0.00 0.00 51 1014.5
20260905030003 84 185 1.0 5.0 0.00 0.00 0.00 52 1014.5
20260905025503 84 187 1.0 5.0 0.00 0.00 0.00 52 1014.4
20260905025003 84 177 1.0 5.0 0.00 0.00 0.00 52 1014.4
20260905024503 84 177 0.0 5.0 0.00 0.00 0.00 53 1014.3
20260905024003 84 170 1.0 4.0 0.00 0.00 0.00 52 1014.2
20260905023503 84 177 2.0 5.0 0.00 0.00 0.00 53 1014.1
20260905023003 84 179 3.0 6.0 0.00 0.00 0.00 53 1014.2
20260905022503 84 176 2.0 6.0 0.00 0.00 0.00 53 1014.1
20260905022003 85 177 2.0 6.0 0.00 0.00 0.00 53 1014.0
20260905021503 85 180 3.0 6.0 0.00 0.00 0.00 53 1013.9
20260905021003 85 183 3.0 6.0 0.00 0.00 0.00 53 1014.0
20260905020503 85 177 3.0 6.0 0.00 0.00 0.00 54 1014.0
20260905020003 86 168 2.0 6.0 0.00 0.00 0.00 52 1013.9
20260905015503 86 164 1.0 6.0 0.00 0.00 0.00 50 1013.8
20260905015003 86 140 1.0 5.0 0.00 0.00 0.00 49 1013.6
20260905014503 86 133 2.0 8.0 0.00 0.00 0.00 48 1013.5
20260905014003 87 132 2.0 9.0 0.00 0.00 0.00 47 1013.4
20260905013503 87 132 3.0 9.0 0.00 0.00 0.00 46 1013.4
20260905013003 87 136 3.0 13.0 0.00 0.00 0.00 45 1013.2
20260905012503 87 147 5.0 13.0 0.00 0.00 0.00 46 1013.3
20260905012003 88 160 7.0 17.0 0.00 0.00 0.00 46 1013.2
20260905011503 89 167 9.0 23.0 0.00 0.00 0.00 44 1013.2
20260905011003 90 171 9.0 23.0 0.00 0.00 0.00 42 1013.4
20260905010503 92 171 8.0 20.0 0.00 0.00 0.00 41 1013.4
20260905010003 93 166 5.0 18.0 0.00 0.00 0.00 38 1013.2
20260905005503 94 158 4.0 10.0 0.00 0.00 0.00 38 1012.8
20260905005003 94 151 3.0 9.0 0.00 0.00 0.00 38 1012.8
20260905004503 94 157 4.0 12.0 0.00 0.00 0.00 37 1012.8
20260905004003 94 162 4.0 12.0 0.00 0.00 0.00 38 1012.7
20260905003503 94 164 3.0 13.0 0.00 0.00 0.00 38 1012.8
20260905003003 94 168 3.0 13.0 0.00 0.00 0.00 38 1012.7
20260905002503 94 167 4.0 12.0 0.00 0.00 0.00 38 1012.7
20260905002003 94 163 3.0 11.0 0.00 0.00 0.00 37 1012.7
20260905001503 94 164 3.0 11.0 0.00 0.00 0.00 37 1012.7
20260905001003 94 161 2.0 11.0 0.00 0.00 0.00 36 1012.6
20260905000503 95 148 1.0 5.0 0.00 0.00 0.00 35 1012.6
20260905000003 95 161 1.0 5.0 0.00 0.00 0.00 35 1012.5
20260904235503 95 165 1.0 5.0 0.00 0.00 0.00 35 1012.6
20260904235003 95 168 1.0 7.0 0.00 0.00 0.00 34 1012.6
20260904234503 96 167 1.0 7.0 0.00 0.00 0.00 35 1012.6
20260904234003 96 163 0.0 5.0 0.00 0.00 0.00 35 1012.6
20260904233503 96 175 0.0 2.0 0.00 0.00 0.00 36 1012.5
20260904233003 96 178 0.0 6.0 0.00 0.00 0.00 34 1012.6
20260904232503 96 168 1.0 6.0 0.00 0.00 0.00 35 1012.5
20260904232003 97 167 1.0 6.0 0.00 0.00 0.00 34 1012.4
20260904231503 97 174 2.0 7.0 0.00 0.00 0.00 34 1012.4
20260904231003 97 175 3.0 7.0 0.00 0.00 0.00 34 1012.4
20260904230503 97 173 4.0 10.0 0.00 0.00 0.00 34 1012.4
20260904230003 97 175 5.0 11.0 0.00 0.00 0.00 33 1012.3
20260904225503 97 177 6.0 11.0 0.00 0.00 0.00 32 1012.3
20260904225003 97 173 6.0 14.0 0.00 0.00 0.00 32 1012.4
20260904224503 98 169 6.0 15.0 0.00 0.00 0.00 31 1012.3
20260904224003 98 171 7.0 15.0 0.00 0.00 0.00 31 1012.3
20260904223503 99 168 6.0 17.0 0.00 0.00 0.00 30 1012.4
20260904223003 99 164 6.0 17.0 0.00 0.00 0.00 30 1012.4
20260904222503 100 163 5.0 15.0 0.00 0.00 0.00 30 1012.3
20260904222003 100 167 6.0 17.0 0.00 0.00 0.00 30 1012.4
20260904221503 100 167 6.0 17.0 0.00 0.00 0.00 31 1012.4
20260904221003 100 159 6.0 16.0 0.00 0.00 0.00 31 1012.3
20260904220503 100 165 6.0 16.0 0.00 0.00 0.00 31 1012.3
20260904220003 100 175 8.0 21.0 0.00 0.00 0.00 31 1012.4
20260904215503 100 175 9.0 21.0 0.00 0.00 0.00 30 1012.4
20260904215003 100 171 8.0 17.0 0.00 0.00 0.00 30 1012.3
20260904214503 101 170 8.0 18.0 0.00 0.00 0.00 31 1012.3
20260904214003 101 161 6.0 18.0 0.00 0.00 0.00 31 1012.3
20260904213503 100 156 5.0 13.0 0.00 0.00 0.00 32 1012.4
20260904213003 100 160 5.0 13.0 0.00 0.00 0.00 32 1012.4
20260904212503 99 162 6.0 17.0 0.00 0.00 0.00 33 1012.5
20260904212003 99 167 7.0 17.0 0.00 0.00 0.00 32 1012.5
20260904211503 98 165 5.0 17.0 0.00 0.00 0.00 33 1012.5
20260904211003 97 159 4.0 11.0 0.00 0.00 0.00 36 1012.6
20260904210503 96 158 4.0 11.0 0.00 0.00 0.00 35 1012.6
20260904210003 96 163 5.0 13.0 0.00 0.00 0.00 36 1012.6
20260904205503 97 158 5.0 13.0 0.00 0.00 0.00 34 1012.7
20260904205003 98 152 4.0 11.0 0.00 0.00 0.00 34 1012.8
20260904204503 99 167 4.0 13.0 0.00 0.00 0.00 34 1012.8
20260904204003 99 160 4.0 13.0 0.00 0.00 0.00 34 1012.9
20260904203503 98 144 3.0 14.0 0.00 0.00 0.00 36 1012.9
20260904203003 98 155 5.0 16.0 0.00 0.00 0.00 36 1013.0
20260904202503 98 155 5.0 16.0 0.00 0.00 0.00 37 1013.0
20260904202003 98 151 3.0 12.0 0.00 0.00 0.00 37 1013.0
20260904201503 97 142 3.0 11.0 0.00 0.00 0.00 37 1013.0
20260904201003 97 142 4.0 13.0 0.00 0.00 0.00 38 1013.0
20260904200503 96 156 5.0 18.0 0.00 0.00 0.00 39 1013.2
20260904200003 96 165 5.0 18.0 0.00 0.00 0.00 38 1013.2
20260904195503 96 169 4.0 12.0 0.00 0.00 0.00 36 1013.1
20260904195003 96 174 4.0 12.0 0.00 0.00 0.00 36 1013.0
20260904194503 96 181 5.0 10.0 0.00 0.00 0.00 37 1013.0
20260904194003 95 172 4.0 13.0 0.00 0.00 0.00 35 1013.0
20260904193503 94 162 2.0 13.0 0.00 0.00 0.00 38 1013.1
20260904193003 93 166 1.0 4.0 0.00 0.00 0.00 39 1013.1
20260904192503 93 181 0.0 2.0 0.00 0.00 0.00 41 1013.1
20260904192003 92 183 1.0 4.0 0.00 0.00 0.00 41 1013.1
20260904191503 92 204 1.0 4.0 0.00 0.00 0.00 40 1013.3
20260904191003 91 287 1.0 4.0 0.00 0.00 0.00 40 1013.4
20260904190503 90 311 0.0 3.0 0.00 0.00 0.00 44 1013.6
20260904190003 90 286 0.0 3.0 0.00 0.00 0.00 43 1013.6
20260904185503 90 247 0.0 3.0 0.00 0.00 0.00 44 1013.7
20260904185003 89 226 1.0 5.0 0.00 0.00 0.00 43 1013.7
20260904184503 89 208 2.0 5.0 0.00 0.00 0.00 44 1013.7
20260904184003 89 203 2.0 7.0 0.00 0.00 0.00 44 1013.7
20260904183503 89 202 2.0 7.0 0.00 0.00 0.00 42 1013.9
20260904183003 89 183 3.0 10.0 0.00 0.00 0.00 42 1013.9
20260904182503 90 175 4.0 10.0 0.00 0.00 0.00 43 1014.0
20260904182003 90 178 3.0 10.0 0.00 0.00 0.00 42 1014.0
20260904181503 90 204 2.0 7.0 0.00 0.00 0.00 37 1014.0
20260904181003 91 200 3.0 8.0 0.00 0.00 0.00 37 1014.2
20260904180503 91 186 3.0 8.0 0.00 0.00 0.00 36 1014.2
20260904180003 92 173 3.0 10.0 0.00 0.00 0.00 36 1014.1
20260904175503 92 173 3.0 11.0 0.00 0.00 0.00 35 1014.0
20260904175003 92 176 4.0 11.0 0.00 0.00 0.00 35 1014.0
20260904174503 92 177 4.0 12.0 0.00 0.00 0.00 35 1014.0
20260904174003 92 184 5.0 12.0 0.00 0.00 0.00 35 1014.0
20260904173503 92 188 5.0 13.0 0.00 0.00 0.00 36 1014.0
20260904173003 92 184 6.0 13.0 0.00 0.00 0.00 35 1014.0
20260904172503 92 188 6.0 11.0 0.00 0.00 0.00 36 1014.1
20260904172003 92 197 4.0 14.0 0.00 0.00 0.00 38 1014.0
20260904171503 91 190 4.0 14.0 0.00 0.00 0.00 39 1014.1
20260904171003 90 193 4.0 10.0 0.00 0.00 0.00 43 1014.0
20260904170503 90 192 5.0 10.0 0.00 0.00 0.00 42 1014.0
20260904170003 89 194 5.0 10.0 0.00 0.00 0.00 43 1014.0
20260904165503 89 200 6.0 13.0 0.00 0.00 0.00 44 1014.1
20260904165003 88 200 6.0 13.0 0.00 0.00 0.00 45 1014.1
20260904164503 88 194 6.0 14.0 0.00 0.00 0.00 45 1014.0
20260904164003 88 188 6.0 14.0 0.00 0.00 0.00 45 1014.2
20260904163503 88 204 5.0 13.0 0.00 0.00 0.00 44 1014.2
20260904163003 88 214 6.0 12.0 0.00 0.00 0.00 45 1014.2
20260904162503 87 205 7.0 18.0 0.00 0.00 0.00 45 1014.3
20260904162003 87 196 7.0 18.0 0.00 0.00 0.00 46 1014.3
20260904161503 86 195 7.0 13.0 0.00 0.00 0.00 46 1014.2
20260904161003 86 197 6.0 14.0 0.00 0.00 0.00 48 1014.2
20260904160503 86 199 6.0 14.0 0.00 0.00 0.00 48 1014.1
20260904160003 85 210 6.0 12.0 0.00 0.00 0.00 49 1014.0
20260904155503 85 210 6.0 12.0 0.00 0.00 0.00 49 1013.9
20260904155003 84 197 6.0 14.0 0.00 0.00 0.00 50 1013.9
20260904154503 84 190 8.0 16.0 0.00 0.00 0.00 50 1013.8
20260904154003 83 191 7.0 16.0 0.00 0.00 0.00 50 1013.7
20260904153503 83 186 6.0 14.0 0.00 0.00 0.00 51 1013.5
20260904153003 82 183 6.0 17.0 0.00 0.00 0.00 53 1013.6
20260904152503 82 192 7.0 17.0 0.00 0.00 0.00 54 1013.6
20260904152003 81 195 7.0 16.0 0.00 0.00 0.00 55 1013.5
20260904151503 80 189 6.0 16.0 0.00 0.00 0.00 56 1013.5
20260904151003 80 184 6.0 17.0 0.00 0.00 0.00 56 1013.6
20260904150503 80 184 6.0 17.0 0.00 0.00 0.00 56 1013.5
20260904150003 80 184 6.0 16.0 0.00 0.00 0.00 56 1013.5
20260904145503 80 180 7.0 15.0 0.00 0.00 0.00 56 1013.6
20260904145003 81 178 7.0 15.0 0.00 0.00 0.00 55 1013.5
20260904144503 81 180 8.0 17.0 0.00 0.00 0.00 55 1013.4
20260904144003 80 182 7.0 17.0 0.00 0.00 0.00 56 1013.4
20260904143503 80 184 7.0 16.0 0.00 0.00 0.00 58 1013.4
20260904143003 79 183 8.0 16.0 0.00 0.00 0.00 60 1013.4
20260904142503 78 178 7.0 18.0 0.00 0.00 0.00 61 1013.4
20260904142003 77 176 7.0 18.0 0.00 0.00 0.00 62 1013.4
20260904141503 77 176 6.0 18.0 0.00 0.00 0.00 62 1013.5